Temperature
14 14 14 14 14 14 14 14 14 14 14 14 14 14 14 14 14 14 14 13 13 13 13 13 13 13 12 12 12 12 12 11 11 11 12 11 11 11 11 11 11 10 10
14 14 14 14 14 14 14 14 14 14 14 14 14 14 14 14 13 13 13 13 13 13 13 13 13 12 12 12 12 11 11 11 11 11 11 11 11 11 11 10 10 10 10
13 13 14 14 14 13 13 13 13 13 13 13 14 14 14 13 13 13 13 13 13 13 13 12 12 12 12 12 11 11 11 11 11 11 11 11 11 10 10 10 10 10 10
13 13 13 13 13 13 13 13 13 13 13 13 13 13 13 13 13 13 13 13 13 12 12 12 12 12 12 11 11 11 11 11 11 11 10 10 10 10 10 10 10 10 10
12 13 13 13 13 13 13 13 13 13 13 13 13 13 13 13 13 13 13 12 12 12 12 12 12 11 11 11 11 11 11 10 10 10 10 10 10 10 10 9 9 9 9
12 12 12 12 12 12 12 12 12 12 12 12 13 13 13 13 13 13 12 12 12 12 12 11 11 11 11 11 11 10 10 10 10 10 10 9 9 9 9 9 9 9 9
11 12 12 12 12 12 12 12 12 12 12 12 12 12 12 12 12 12 12 12 12 11 11 11 11 11 11 11 10 10 10 10 10 9 9 9 9 9 9 9 9 9 9
11 11 11 11 11 11 11 11 11 11 11 11 11 11 11 11 11 11 11 11 11 11 11 11 11 10 10 10 10 10 10 9 9 9 8 8 8 8 8 8 8 8 8
11 11 11 11 11 11 11 11 11 11 11 11 11 10 10 10 10 11 11 11 11 11 11 11 10 10 10 10 9 9 9 9 9 8 8 8 8 8 8 8 8 8 8
10 10 10 10 10 10 10 11 10 10 10 10 10 10 10 10 10 10 10 10 10 10 10 10 10 10 9 9 9 9 9 9 8 8 8 8 8 8 8 8 8 8 8
10 10 10 10 10 10 10 10 10 10 10 10 10 10 10 10 9 9 9 9 10 10 10 10 9 9 9 9 8 8 8 8 8 8 8 8 7 7 7 7 7 7 7
9 9 10 10 10 10 10 10 10 10 9 9 9 9 9 9 9 9 8 8 9 9 9 9 9 8 8 8 8 8 8 8 7 7 7 7 7 7 7 7 7 7 7
9 9 9 9 9 9 9 9 9 9 9 9 9 9 9 9 8 8 8 8 8 8 8 8 8 8 8 7 7 7 7 7 7 7 7 7 6 6 7 6 6 6 6
9 9 9 9 9 9 9 9 9 9 9 8 8 8 8 8 8 8 7 7 7 6 7 7 8 7 7 7 7 7 7 7 7 7 6 6 6 6 6 6 6 6 6
8 8 8 8 8 8 8 8 8 8 8 8 8 8 7 7 7 7 7 6 6 6 6 6 6 6 6 6 6 6 6 6 6 6 6 6 6 5 5 5 5 5 6
7 7 8 8 8 8 8 8 8 8 7 7 7 7 7 7 7 7 6 6 6 5 5 5 5 6 6 6 6 6 5 5 6 6 6 5 5 5 5 5 5 5 5
7 7 7 7 7 7 7 7 7 7 7 7 7 6 6 6 6 6 6 6 5 5 5 5 5 5 5 5 5 5 5 5 5 5 5 5 5 5 5 5 5 5 5
7 7 6 6 6 6 6 6 7 7 6 6 6 6 6 6 6 6 5 5 5 4 4 4 4 4 4 4 4 4 5 5 5 5 5 5 5 5 5 5 5 5 5
6 6 6 6 6 6 6 6 6 6 6 6 5 5 5 5 5 5 5 4 4 4 4 3 4 4 3 3 3 4 4 4 4 4 4 4 4 4 4 4 4 4 4
6 6 6 6 6 6 5 5 5 5 5 5 5 5 5 4 4 4 4 4 3 3 3 3 3 3 3 3 3 3 4 4 4 4 4 4 4 4 4 4 4 4 4
5 5 5 5 5 5 5 5 5 5 5 5 4 4 4 4 4 3 3 3 3 3 3 2 2 2 2 2 2 2 2 3 3 3 3 3 3 3 3 4 4 4 4
5 5 5 5 5 5 4 4 4 4 4 4 4 4 4 4 3 3 3 3 3 2 2 2 2 1 1 1 1 1 1 1 2 2 2 3 3 3 3 3 3 3 3
4 4 4 4 4 4 4 4 4 4 4 4 4 4 3 3 3 3 3 3 2 2 2 1 1 1 1 1 0 1 1 1 1 1 1 2 2 3 3 3 3 3 3
4 4 4 4 4 3 3 3 3 3 3 3 3 3 3 3 3 2 2 2 2 2 1 1 1 1 0 0 0 -0 0 0 1 1 1 1 2 2 2 2 2 2 3
3 3 3 3 3 3 3 3 3 3 3 3 3 3 2 2 2 1 1 1 1 1 1 1 1 1 0 0 -0 -0 -0 -0 -0 0 -0 -0 0 1 2 2 2 2 2
3 3 3 3 3 3 3 3 3 3 3 2 2 2 2 2 1 1 1 1 1 1 0 1 1 0 0 -0 -0 -1 -1 -1 -1 -1 -1 -1 -0 -0 0 1 2 2 2
Wind_Speed
3 3 3 4 4 5 5 4 4 4 4 5 5 6 5 6 6 6 6 7 8 8 7 7 6 6 6 6 6 6 5 5 6 6 7 7 8 8 9 9 9 9 9
3 3 4 4 4 5 5 5 5 4 4 4 4 5 5 6 6 6 6 6 8 8 8 8 7 7 7 7 7 6 6 7 7 8 8 8 9 9 10 10 11 11 11
4 4 4 4 4 6 5 4 4 3 3 3 4 4 4 5 5 6 6 5 6 7 8 8 8 7 7 7 7 7 7 8 8 9 9 10 10 11 11 12 12 12 12
5 4 3 3 4 5 4 4 3 3 3 3 3 4 4 4 5 6 6 5 5 5 6 7 7 7 7 7 7 8 8 8 9 9 10 11 11 11 12 12 12 12 12
5 4 4 4 4 4 4 4 3 3 3 3 3 3 3 3 4 4 4 5 5 5 5 6 6 6 6 7 7 8 9 9 9 10 11 11 12 12 13 13 13 13 13
5 5 3 4 4 3 3 4 3 2 2 3 3 2 2 3 3 3 4 4 4 5 5 4 3 4 5 6 8 9 10 11 11 11 12 12 13 13 13 14 13 14 14
4 4 3 3 4 4 4 4 3 3 2 2 1 1 2 2 3 3 3 3 3 4 4 3 3 3 4 6 8 9 11 12 12 12 13 13 13 13 14 14 14 15 15
3 4 4 4 4 4 4 4 3 2 2 2 2 1 1 2 2 3 3 3 3 2 2 3 3 4 4 5 7 9 10 12 14 14 14 14 14 14 15 15 15 15 16
3 3 3 3 4 4 4 4 4 4 3 2 2 3 3 4 1 1 3 3 3 2 3 2 4 5 6 6 6 8 11 12 14 16 16 15 16 16 16 16 17 17 17
2 2 3 3 4 3 4 4 3 3 4 3 2 1 2 2 2 1 1 2 3 4 4 3 3 5 6 6 7 9 11 13 15 16 17 17 17 17 17 18 18 18 17
1 1 1 2 3 3 3 3 3 3 3 3 3 2 1 1 2 2 3 2 2 3 4 4 4 4 6 6 7 9 12 13 16 18 18 18 19 18 18 18 19 19 18
1 1 1 2 2 3 3 3 3 4 3 3 3 2 2 2 2 2 3 3 3 3 3 3 4 4 4 6 8 11 12 14 16 18 19 19 19 19 18 19 19 19 19
2 2 1 1 2 2 3 3 3 3 3 4 3 2 2 2 2 2 2 2 3 3 2 3 3 3 4 6 8 11 12 14 16 18 19 20 20 19 19 19 19 19 19
2 2 1 1 1 1 2 2 2 2 2 3 3 2 2 2 2 2 2 2 3 3 3 4 3 3 4 7 9 11 12 15 16 18 19 20 20 19 19 18 19 19 19
1 2 2 2 2 2 2 3 2 2 2 2 2 2 2 1 1 1 2 3 3 4 5 3 3 3 5 7 10 10 11 14 16 18 18 19 19 19 19 18 18 18 18
1 1 1 2 2 1 2 2 2 2 2 2 2 2 2 1 1 1 1 2 3 4 5 4 4 5 5 7 10 10 11 15 16 17 18 18 18 18 18 18 17 17 18
1 1 1 2 2 2 2 2 2 2 3 2 2 2 1 1 1 1 1 1 2 3 6 5 4 4 5 6 8 9 11 11 12 16 18 18 18 18 18 17 17 17 17
1 1 1 2 2 2 2 3 2 2 3 2 2 2 1 0 0 1 1 2 2 3 4 7 5 4 5 6 7 7 8 10 11 15 16 18 18 18 18 17 17 17 16
0 0 1 2 2 2 2 2 2 2 2 2 2 2 2 1 1 1 2 2 2 3 3 5 6 4 5 5 6 7 7 7 9 12 14 15 16 17 17 16 16 16 15
1 1 1 1 1 2 2 2 2 2 2 2 2 2 2 2 2 2 2 3 3 3 3 4 5 4 5 5 5 6 8 7 8 8 10 13 15 16 16 15 14 14 14
1 1 1 1 1 1 2 3 3 3 3 2 1 1 2 2 2 2 2 3 3 3 3 4 5 5 5 5 5 5 8 8 8 5 7 8 8 8 9 13 13 13 13
1 1 1 2 1 1 2 3 3 3 2 2 1 0 1 1 2 3 4 4 3 3 4 4 4 5 6 6 6 6 7 7 7 4 6 8 6 7 7 8 12 13 12
1 1 1 1 1 1 2 2 2 2 2 2 1 1 1 1 2 2 3 4 4 5 5 5 5 7 7 6 7 7 7 7 8 6 6 8 5 7 7 9 12 11 11
2 2 2 2 1 1 2 2 2 2 2 1 1 1 1 2 2 2 2 2 3 4 4 4 5 6 7 6 6 7 8 8 8 5 3 6 5 6 8 8 10 10 10
2 2 2 2 2 1 2 2 2 1 1 1 1 1 1 2 3 3 2 3 4 4 5 5 6 7 9 9 6 4 5 5 6 5 2 4 5 6 6 5 7 9 10
3 2 2 2 2 2 2 2 1 1 1 1 1 2 3 3 4 4 2 3 4 5 4 5 5 6 6 6 7 4 4 5 5 4 2 3 4 4 5 4 5 6 7
Wind_Direction
199 196 195 193 194 192 187 184 186 186 188 192 194 191 193 199 201 204 214 222 224 231 238 241 240 249 254 259 265 269 277 278 284 289 293 295 298 300 300 299 296 295 294
195 202 203 198 198 197 195 192 193 193 196 198 201 199 201 204 206 206 212 221 225 230 238 245 248 255 262 265 268 271 276 279 282 284 287 290 293 295 293 290 289 289 288
194 195 205 205 204 199 191 187 189 189 197 202 209 211 205 207 206 209 210 218 226 232 237 245 254 257 263 269 273 276 280 282 284 285 286 287 288 290 290 289 289 288 286
206 193 199 206 202 193 184 188 189 195 204 208 218 221 214 206 207 207 207 212 218 227 234 240 250 257 262 269 276 282 284 285 283 284 284 286 287 288 290 291 292 289 287
210 200 202 200 191 185 189 192 190 192 202 211 223 228 222 217 212 203 202 208 212 217 224 237 247 254 262 269 276 281 284 286 284 284 284 285 287 288 288 289 291 288 286
215 202 203 196 186 184 191 193 186 190 199 204 219 236 239 231 216 213 212 208 210 215 221 231 243 256 262 271 279 284 287 290 287 285 284 284 285 286 287 288 289 288 285
220 200 204 196 189 191 197 190 182 182 202 180 178 251 268 237 225 225 219 213 213 214 216 221 232 254 271 279 284 289 292 293 291 287 284 283 284 285 286 286 286 287 286
224 205 198 198 194 191 188 187 176 180 189 171 163 162 253 271 247 236 229 221 222 206 206 228 235 248 263 272 282 290 296 296 293 290 287 285 284 284 284 285 285 285 285
230 205 202 198 195 190 191 191 184 184 190 196 188 174 186 225 255 258 233 224 221 223 232 230 236 249 259 266 275 285 289 292 296 294 289 287 285 284 284 283 283 284 284
245 211 192 183 184 187 186 192 188 186 177 195 204 209 200 168 186 253 264 238 231 233 240 254 251 252 256 263 274 285 289 288 290 294 293 289 286 284 284 283 284 285 284
271 234 180 176 181 181 179 182 182 183 187 194 192 185 187 198 197 205 252 259 265 250 248 249 242 243 256 267 277 284 290 291 292 292 292 293 290 286 285 284 283 283 283
243 234 174 171 184 180 180 184 188 182 190 190 194 196 192 188 194 202 235 253 261 257 262 252 240 239 257 270 279 288 289 290 291 292 292 291 294 289 286 285 284 284 283
244 232 202 190 182 183 180 177 179 180 184 190 197 208 205 212 204 206 227 249 261 265 258 250 242 247 273 283 288 289 288 289 289 290 291 292 291 293 287 284 284 284 283
237 213 192 181 165 164 168 161 170 182 173 183 193 191 200 220 214 210 213 227 273 269 255 256 256 245 284 293 290 291 289 290 290 290 290 291 290 291 288 283 282 282 282
225 185 176 175 174 171 171 162 168 173 165 177 181 179 196 220 217 230 224 219 227 264 272 255 256 276 296 295 296 296 292 291 292 292 290 289 289 288 289 284 281 280 281
212 172 162 164 168 178 175 164 156 161 161 172 169 169 186 200 215 230 231 243 237 244 263 267 267 288 299 302 299 300 294 296 295 294 292 290 288 286 287 285 280 279 279
185 172 177 170 176 181 174 158 158 156 161 170 172 173 187 182 198 229 239 243 254 251 266 281 275 284 287 294 304 303 298 295 295 296 295 295 292 288 287 286 282 279 278
192 184 181 179 187 188 179 170 172 166 171 178 177 165 191 187 200 242 241 251 259 257 259 279 293 296 292 299 300 299 306 302 297 298 298 296 293 290 289 287 285 280 277
141 149 153 163 171 182 175 169 168 167 178 182 178 179 196 180 244 268 272 268 272 277 262 272 289 294 295 302 306 301 300 299 304 302 301 301 297 294 290 288 285 282 280
146 155 146 156 162 168 165 159 150 159 165 175 185 190 198 202 230 256 270 268 275 282 275 274 284 294 294 301 308 308 312 309 305 305 304 303 301 300 297 294 290 286 282
148 138 124 124 139 166 173 158 150 155 161 170 190 207 214 223 237 254 265 266 267 273 279 282 288 299 302 314 312 307 305 309 300 289 303 302 300 297 297 298 295 292 289
139 139 149 143 152 171 173 166 149 149 146 150 167 221 243 230 261 283 289 289 283 274 274 276 287 293 297 296 297 301 303 309 303 308 309 300 296 295 299 296 301 302 297
161 163 171 169 183 196 176 172 162 146 145 162 181 206 284 287 295 285 302 311 301 288 277 270 279 284 290 294 295 294 296 296 286 298 305 291 295 296 301 296 300 300 303
179 189 197 194 190 202 171 165 168 136 141 175 208 220 244 278 289 297 299 303 296 292 291 279 270 281 286 290 287 283 284 286 283 283 282 283 296 298 303 298 299 302 302
183 188 191 187 186 209 181 176 146 131 158 229 250 247 253 269 284 301 299 288 293 294 304 299 294 293 296 298 301 297 300 303 300 294 290 291 296 305 299 288 303 308 307
186 183 189 191 192 212 206 190 159 148 191 249 274 268 265 275 287 299 285 276 288 295 308 316 313 312 307 305 307 289 282 287 298 292 294 304 296 316 308 294 302 310 312
Height
1514 1516 1518 1519 1521 1523 1525 1526 1528 1529 1530 1532 1533 1534 1535 1536 1537 1537 1538 1539 1539 1539 1539 1539 1538 1538 1537 1537 1536 1535 1534 1534 1533 1532 1531 1530 1530 1529 1528 1527 1526 1525 1524
1510 1512 1514 1516 1517 1519 1521 1523 1524 1525 1527 1529 1530 1531 1532 1533 1534 1534 1535 1536 1536 1536 1536 1536 1536 1535 1535 1534 1533 1532 1532 1531 1530 1529 1528 1527 1526 1525 1524 1523 1522 1521 1520
1506 1508 1510 1511 1513 1515 1517 1519 1520 1522 1523 1525 1526 1528 1528 1529 1530 1531 1532 1532 1533 1533 1533 1533 1532 1532 1531 1531 1530 1529 1529 1528 1527 1526 1525 1524 1523 1522 1521 1520 1519 1518 1516
1502 1504 1505 1507 1509 1511 1513 1515 1516 1518 1519 1521 1522 1524 1525 1526 1527 1527 1528 1528 1529 1529 1529 1529 1529 1528 1528 1527 1526 1526 1525 1524 1523 1522 1521 1520 1519 1518 1517 1516 1515 1513 1512
1498 1500 1501 1503 1505 1507 1508 1510 1512 1514 1515 1517 1518 1520 1521 1522 1523 1523 1524 1524 1525 1525 1525 1525 1525 1524 1524 1523 1522 1522 1521 1520 1519 1518 1517 1516 1515 1514 1512 1511 1510 1509 1508
1494 1496 1497 1499 1501 1502 1504 1506 1507 1509 1511 1512 1514 1515 1516 1517 1518 1518 1519 1520 1520 1520 1520 1521 1520 1520 1519 1519 1518 1517 1517 1516 1514 1513 1512 1511 1510 1509 1508 1507 1505 1504 1503
1490 1491 1492 1494 1496 1497 1499 1501 1503 1505 1506 1508 1509 1510 1511 1512 1513 1514 1514 1515 1515 1516 1516 1516 1515 1515 1515 1514 1514 1513 1512 1511 1510 1509 1508 1506 1506 1504 1503 1502 1500 1499 1498
1485 1487 1488 1489 1491 1493 1495 1496 1498 1500 1501 1503 1505 1506 1507 1508 1507 1508 1509 1509 1510 1511 1511 1511 1510 1510 1510 1509 1508 1507 1506 1505 1505 1503 1502 1501 1500 1499 1498 1497 1495 1494 1492
1481 1482 1484 1485 1486 1488 1490 1491 1493 1495 1497 1499 1501 1503 1503 1502 1503 1503 1503 1504 1505 1505 1506 1506 1505 1505 1504 1504 1503 1502 1501 1500 1499 1498 1496 1495 1494 1493 1492 1491 1489 1488 1486
1477 1478 1480 1481 1482 1484 1485 1487 1489 1491 1493 1494 1497 1498 1499 1499 1500 1498 1499 1500 1500 1500 1500 1500 1500 1500 1499 1498 1497 1496 1495 1494 1493 1492 1490 1489 1488 1487 1485 1484 1483 1481 1480
1474 1474 1476 1477 1478 1480 1481 1483 1485 1487 1489 1490 1492 1493 1494 1495 1495 1495 1494 1495 1495 1495 1496 1495 1494 1494 1493 1492 1491 1491 1489 1488 1487 1485 1484 1483 1481 1480 1478 1477 1475 1474 1473
1470 1471 1472 1473 1475 1476 1477 1479 1481 1482 1484 1486 1487 1489 1489 1490 1491 1491 1490 1489 1489 1490 1490 1490 1489 1488 1487 1487 1486 1485 1484 1482 1480 1479 1477 1476 1474 1472 1471 1469 1468 1467 1465
1466 1467 1469 1470 1471 1472 1473 1475 1477 1478 1480 1481 1482 1484 1485 1486 1487 1487 1486 1485 1485 1484 1484 1484 1484 1483 1482 1481 1480 1479 1477 1476 1474 1472 1471 1469 1467 1464 1463 1462 1460 1459 1458
1462 1463 1465 1466 1467 1469 1470 1471 1473 1474 1475 1477 1478 1479 1480 1481 1482 1482 1482 1482 1480 1479 1478 1478 1478 1478 1477 1476 1474 1473 1471 1469 1467 1465 1463 1461 1459 1457 1455 1454 1452 1451 1450
1459 1460 1461 1462 1464 1465 1466 1467 1468 1470 1471 1472 1473 1474 1475 1476 1477 1478 1478 1478 1479 1475 1473 1472 1473 1472 1471 1470 1468 1467 1465 1463 1460 1458 1456 1454 1452 1450 1448 1446 1445 1443 1441
1456 1457 1458 1459 1460 1461 1463 1464 1465 1466 1467 1468 1469 1470 1471 1472 1472 1473 1473 1474 1473 1472 1469 1467 1468 1467 1466 1464 1463 1461 1458 1456 1454 1452 1449 1447 1444 1442 1440 1438 1437 1435 1433
1454 1454 1455 1456 1457 1458 1459 1460 1461 1462 1463 1464 1465 1466 1466 1467 1468 1468 1468 1468 1468 1467 1465 1463 1463 1462 1461 1458 1456 1454 1452 1450 1447 1444 1442 1440 1437 1435 1433 1431 1429 1427 1425
1451 1452 1452 1453 1454 1455 1456 1457 1458 1459 1460 1461 1462 1462 1463 1463 1463 1464 1464 1463 1463 1462 1461 1458 1457 1456 1455 1453 1451 1448 1446 1444 1441 1438 1435 1433 1430 1428 1425 1423 1421 1419 1417
1448 1449 1450 1450 1451 1452 1453 1454 1455 1456 1457 1458 1458 1458 1459 1459 1459 1460 1459 1459 1458 1458 1456 1454 1452 1451 1449 1448 1445 1442 1440 1438 1435 1432 1429 1426 1423 1421 1418 1416 1414 1412 1410
1446 1446 1447 1447 1448 1449 1450 1451 1452 1453 1453 1454 1455 1455 1455 1456 1456 1456 1455 1454 1454 1453 1451 1450 1447 1446 1444 1443 1441 1437 1434 1432 1429 1426 1423 1421 1418 1415 1412 1409 1407 1405 1403
1443 1444 1444 1445 1446 1446 1447 1448 1449 1449 1450 1450 1451 1452 1452 1452 1452 1452 1452 1450 1450 1448 1447 1445 1443 1441 1439 1438 1436 1433 1430 1427 1424 1421 1417 1415 1412 1409 1406 1403 1401 1399 1398
1441 1441 1442 1442 1443 1444 1445 1445 1446 1446 1447 1447 1448 1448 1449 1449 1449 1448 1448 1447 1446 1445 1443 1441 1439 1437 1435 1434 1432 1429 1426 1422 1418 1417 1413 1409 1407 1403 1401 1398 1396 1394 1392
1438 1439 1439 1440 1441 1441 1442 1443 1443 1444 1444 1444 1445 1445 1445 1445 1445 1444 1443 1443 1442 1441 1440 1438 1435 1433 1432 1430 1428 1425 1423 1420 1416 1413 1409 1404 1402 1399 1396 1394 1392 1390 1388
1436 1436 1437 1438 1438 1439 1440 1440 1440 1441 1441 1441 1441 1441 1441 1441 1441 1440 1439 1438 1437 1436 1435 1433 1431 1429 1428 1426 1424 1422 1419 1416 1413 1410 1407 1401 1397 1394 1392 1390 1388 1386 1384
1433 1434 1434 1435 1436 1436 1437 1437 1438 1438 1438 1438 1438 1439 1438 1438 1438 1437 1435 1434 1432 1431 1431 1429 1427 1425 1423 1422 1420 1418 1415 1411 1407 1405 1403 1399 1394 1390 1388 1386 1385 1383 1381
1430 1431 1431 1432 1433 1433 1434 1434 1435 1435 1435 1435 1435 1435 1435 1435 1434 1433 1431 1430 1428 1427 1426 1424 1422 1421 1419 1417 1415 1413 1411 1408 1404 1401 1399 1396 1392 1389 1384 1382 1381 1380 1377